Location: Newark
(56.0692°N, 115.8617°E)
Time: 12:17:49
(UTC+00:00)

Vanguard 2 Rocket - Pass Details

Date: 30 May 2020
Orbit: 556 x 3325 km, 32.9° (Epoch: 14 July)

Event Time Altitude Azimuth Distance (km) Brightness Sun altitude
Rises 10:16:22 0° 244° (WSW) 4,882 11.5 17.7°
Reaches altitude 10° 10:19:56 10° 231° (SW) 4,284 11.0 17.2°
Maximum altitude 10:29:15 26° 182° (S) 4,024 10.2 16.0°
Drops below altitude 10° 10:42:03 10° 137° (SE) 5,991 10.6 14.3°
Sets 10:48:23 0° 127° (SE) 7,230 10.9 13.4°
